Regional Weather Roundup
Issued by NWS Upton, NY

Current Version | Previous Version | Graphics & Text | Print | Product List | Glossary Off
Versions: 1 2 3 4 5 6 7 8 9 10 11 12 13 14 15 16 17 18 19 20 21 22 23 24 25 26 27

000
ASUS41 KOKX 050002
RWROKX

REGIONAL WEATHER ROUNDUP
NATIONAL WEATHER SERVICE NEW YORK NY
800 PM EDT WED MAY 04 2016

NOTE: "FAIR" INDICATES FEW OR NO CLOUDS BELOW 12,000 FEET WITH NO
SIGNIFICANT WEATHER AND/OR OBSTRUCTIONS TO VISIBILITY.

NYZ071-072-176-178-NJZ106-104-050100-
NEW YORK CITY METRO AREA


CITY           SKY/WX    TMP DP  RH WIND       PRES   REMARKS
CENTRAL PARK   CLOUDY    50  46  86 NE9       29.76S
LAGUARDIA APRT CLOUDY    52  49  89 NE13      29.74R
KENNEDY INTL   CLOUDY    50  46  86 NE13      29.75R
NEWARK/LIBERTY CLOUDY    50  48  93 NE13      29.74R FOG
BRNX BOT. GARD   N/A     48  46  93 NE7       29.75F
TETERBORO      CLOUDY    51  45  79 NE7       29.74R
$$

NYZ177-179-078>081-050100-
LONG ISLAND NEW YORK

CITY           SKY/WX    TMP DP  RH WIND       PRES   REMARKS
FARMINGDALE    CLOUDY    48  45  89 NE10      29.75R
ISLIP          CLOUDY    47  44  90 N13G23    29.73F
SHIRLEY        LGT RAIN  47  45  93 NE8       29.73S
RIVERHEAD        N/A     46  45  93 E3        29.75R
WESTHAMPTON    LGT RAIN  43  43 100 NE13G21   29.74  FOG
EAST HAMPTON   LGT RAIN  45  43  93 NE9       29.73S
MONTAUK POINT    N/A     45  43  93 NE13G21   29.73F
$$

NYZ052-065-067-050100-
HUDSON VALLEY

CITY           SKY/WX    TMP DP  RH WIND       PRES   REMARKS
WHITE PLAINS   CLOUDY    49  46  90 NE6       29.75R
NEWBURGH       MOCLDY    48  46  93 NE12      29.76R
MONTGOMERY     CLOUDY    49  46  90 NE8       29.75R
POUGHKEEPSIE   CLOUDY    50  45  83 NE9       29.76R
ALBANY         CLOUDY    50  44  80 NE3       29.79S
$$

NJZ001-105-106-008-010-013-015-019>022-104-050100-
NEW JERSEY

CITY           SKY/WX    TMP DP  RH WIND       PRES   REMARKS
NEWARK/LIBERTY CLOUDY    50  48  93 NE13      29.74R FOG
TETERBORO      CLOUDY    51  45  79 NE7       29.74R
CALDWELL       CLOUDY    50  30  46 NE6       29.75R
MORRISTOWN     CLOUDY    50  48  93 NE6       29.75R
SOMERVILLE     CLOUDY    51  46  83 NE3       29.72R
SUSSEX         CLOUDY    49  46  90 NE8       29.75R
ANDOVER          N/A     49  46  90 VRB7      29.73R
TRENTON        CLOUDY    50  46  86 E9        29.72R
MILLVILLE      CLOUDY    50  45  83 E12       29.71R
ATLANTIC CITY  CLOUDY    49  45  86 NE15G22   29.70R
WRIGHTSTOWN    CLOUDY    48  46  93 NE8       29.70R
TOMS RIVER     CLOUDY    48  45  87 NE12      29.73R
BELMAR         CLOUDY    49  46  90 NE10      29.74R
$$

PAZ047>061-062-071-050100-
EASTERN PENNSYLVANIA

CITY           SKY/WX    TMP DP  RH WIND       PRES   REMARKS
PHILADELPHIA   CLOUDY    52  46  80 NE10G21   29.73R
ALLENTOWN      CLOUDY    51  44  77 E5        29.73R
SCRANTON       CLOUDY    50  45  83 E3        29.72R
$$

CTZ002-004>006-009-010-012-RIZ004-006-007-MAZ004-011-015-050100-
SOUTHERN NEW ENGLAND
 IN CT

CITY           SKY/WX    TMP DP  RH WIND       PRES   REMARKS
BRADLEY INTL   LGT RAIN  47  41  80 NE17      29.76F
HARTFORD       CLOUDY    49  42  77 NE12      29.77F
DANBURY        LGT RAIN  48  42  80 NE6       29.77R
WTRBRY/OXFORD  CLOUDY    46  39  76 MISG      29.78R
BRIDGEPORT     LGT RAIN  49  45  86 NE9       29.76R
MERIDEN        LGT RAIN  48  42  80 NE7       29.77R
NEW HAVEN      RAIN      47  43  86 NE8       29.76R
CHESTER        CLOUDY    45  43  93 NE9       29.75R
GROTON         RAIN      45  45 100 NE13      29.72F FOG
WILLIMANTIC    LGT RAIN  47  42  83 NE10      29.77F

 IN RI

CITY           SKY/WX    TMP DP  RH WIND       PRES   REMARKS
PROVIDENCE     RAIN      44  41  89 N20       29.78F
BLOCK ISLAND   LGT RAIN  44  43  96 N18       29.75
WESTERLY       RAIN      45  41  86 N8        29.75S FOG

 IN MA

CITY           SKY/WX    TMP DP  RH WIND       PRES   REMARKS
BOSTON         LGT RAIN  44  41  89 NE13G21   29.82F FOG
WORCESTER      LGT RAIN  41  39  93 NE14G20   29.79S FOG
WESTFIELD      LGT RAIN  47  42  83 N9        29.78F
PROVINCETOWN   LGT RAIN  44  43  96 NE18G26   29.78S
NANTUCKET      LGT RAIN  47  44  90 NE22G28   29.70F FOG
$$

ANZ330-335-338-340-345-350-353-355-050100-
COASTAL MARINE OBSERVATIONS


STATION/POSITION TIME  SKY/WX   TEMP    WIND        PRES    VSBY  WAVE
                                AIR SEA DIR/SP/G                  HT/PER
                 (UTC)          (F)     (DEG/KT/KT) (MB)    (MI)  (FT/S)
NY HARB ENTRANCE 2250            50 50   40/ 16/ 17 1005.4          6/ 6
20S FIRE ISLAND  2250            47 48   60/ 25/ 31 1003.4          8/ 7
GREAT SOUTH BAY  2300            49 55   40/ 10/ 14   N/A
23 SSW MONTAUK P 2350            45 46   30/ 21/ 25 1005.5          8/ 6
15 E BARNEGAT LI 2322               50                N/A           7/ 7
HUDSON CANYON    2250            47 48              1003.7          7/ 7
KINGS POINT      2300               53              1006.7
EXECUTION ROCKS  NOT AVBL
CENTRAL LI SOUND NOT AVBL
EASTERN LI SOUND 2300            46 47   50/ 14/ 17   N/A
ROBBINS REEF     2306                    50/ 13/ 16 1006.1
$$


>>>>>>>>>>>>>>>>>>>>>>>>>>>> KEY <<<<<<<<<<<<<<<<<<<<<<<<<<<
>                                                          <
>     SKY/WX - SKY CONDITION/PRESENT WEATHER               <
>     TMP    - TEMPERATURE IN FAHRENHEIT                   <
>     DP     - DEWPOINT IN FAHRENHEIT                      <
>     RH     - RELATIVE HUMIDITY IN PERCENT                <
>     WIND   - DIRECTION AND SPEED IN MPH                  <
>     PRES   - MEAN SEA LEVEL PRESSURE IN INCHES OF HG     <
>     WCI    - WIND CHILL INDEX                            <
>     VSB    - VISIBILITY IN MILES                         <
>     HX     - HEAT INDEX                                  <
>     TC     - TEMPERATURE IN CELSIUS                      <
>     VRB    - VARIABLE WIND DIRECTION                     <
>                                                          <
>>>>>>>>>>>>>>>>>>>>>>>>>>>> KEY <<<<<<<<<<<<<<<<<<<<<<<<<<<






USA.gov is the U.S. government's official web portal to all federal, state and local government web resources and services.